Location: Newark
(49.4642°N, 2.1122°E)
Time: 01:21:11
(UTC+00:00)

EO-88 - Visible Passes

Search period start: 11 July 2020 00:00
Search period end: 21 July 2020 00:00
Orbit: 483 x 489 km, 97.4° (Epoch: 10 July)

Date Brightness Start Highest point End Pass type
(mag) Time Alt. Az. Time Alt. Az. Time Alt. Az.
11 Jul ? 21:00:11 11° SSE 21:03:35 57° ENE 21:07:10 10° N visible
11 Jul ? 22:35:46 10° WSW 22:37:26 13° W 22:39:06 10° WNW visible
12 Jul ? 20:36:34 10° SE 20:39:47 31° ENE 20:43:02 10° N visible
12 Jul ? 22:10:28 10° SSW 22:13:19 22° W 22:16:14 10° NW visible
13 Jul ? 21:46:22 13° SSW 21:49:17 40° W 21:52:44 10° NNW visible
14 Jul ? 21:22:16 14° S 21:25:20 79° WSW 21:28:59 10° NNW visible
15 Jul ? 20:58:09 12° SSE 21:01:27 54° ENE 21:05:00 10° N visible
15 Jul ? 22:33:25 10° WSW 22:35:16 13° W 22:37:06 10° WNW visible
16 Jul ? 20:34:28 10° SE 20:37:39 29° ENE 20:40:50 10° N visible
16 Jul ? 22:08:27 11° SSW 22:11:09 23° W 22:14:08 10° NW visible
17 Jul ? 21:44:20 15° SSW 21:47:07 43° W 21:50:36 10° NNW visible
18 Jul ? 21:20:14 15° SSE 21:23:09 84° WSW 21:26:49 10° NNW visible
19 Jul ? 20:56:08 12° SSE 20:59:17 50° ENE 21:02:49 10° N visible
19 Jul ? 22:31:04 10° WSW 22:33:03 14° W 22:35:03 10° WNW visible
20 Jul ? 20:32:21 10° SE 20:35:28 28° ENE 20:38:37 10° N visible
20 Jul ? 22:06:25 13° SSW 22:08:57 25° W 22:12:00 10° NW visible
